SONATE (44400 NORAD) Tracking and Keplerian Element Data

This shows tracking and keplerian element data for the satellite.

Feedback or suggestion? Click here.




ElementValue
Catalog44400
NameSONATE
Epoch Orbit1607
Epoch Day292.8732118
Epoch Year2019
RAAN252.7993
Inclination97.5045
Eccentricity0.0023985
Argument of Perigee235.9977
Mean Anonmoly123.8975
Mean Motion15.11709581
Decay Rate3.65E-06
L11 44400U 19038Q 19292.87321180 .00000365 00000-0 25142-4 0 9998
L22 44400 97.5045 252.7993 0023985 235.9977 123.8975 15.11709581 16077

Live tracking and technical data element details for SONATE (NORAD 44400). SONATE can be tracked NOW for your location showing map with azimuth and elevation plus other details from your city location.

Track the satellite on the map from your city or location and see movement details for azimuth, elevation, latitude, longitude, range, height, and movement on the map or in text.







IsCatalogInMostPopularTable: catalog: 44400, numindb: 16
Update: records affected: 1



GetName: 44400 SONATE

Hit Count: updated at: Tue, 22 Oct 2019 23:30:30 GMT